User: anonymous   Login
Location: *
(37.5724°S, 58.0067°E)
Time: 19:25:57
(UTC+00:00)
Language:

Nadezhda 4 Rocket - Orbit

View from above orbital plane
View from above orbital plane
View from above satellite
View from above satellite

Ground track
Ground track

The orbit data is extracted from the following two-line orbital elements,

1 23180U 94041B   20332.85831847 +.00000057 +00000-0 +41692-4 0  9994
2 23180 082.9478 073.6637 0027678 293.4076 186.5680 13.77983319326126
Epoch (UTC): 27 November 2020 20:35:58
Eccentricity: 0.0027678
inclination: 82.9478°
perigee height: 951 km
apogee height: 991 km
right ascension of ascending node: 73.6637°
argument of perigee: 293.4076°
revolutions per day: 13.77983319
mean anomaly at epoch: 186.5680°
orbit number at epoch: 32612

The dashed part of the orbit path shows where the satellite is in the earth's shadow,  

DLR